ITY96 KDCA-KLGA

Flight info

Callsign ITY96
Flight time 0h 41m
Altitude 23000
Route DOCTR5 AGARD SPEAK PROUD2
Aircraft A320/M-SDE3FGHIRWY/LB1

Departure

Time 2026-04-22 10:01
Airport Ronald Reagan Washington National Airport (KDCA)

Arrival

Time 2026-04-22 10:43
Airport LaGuardia Airport (KLGA)
Time Latitude Longitude Altitude Speed Heading
2026-04-22 09:44 38.85146 -77.04095 21 ft 0 kts 321°
2026-04-22 09:55 38.85141 -77.04090 21 ft 3 kts 321°
2026-04-22 09:55 38.85127 -77.04076 22 ft 3 kts 321°
2026-04-22 09:55 38.85113 -77.04062 22 ft 3 kts 359°
2026-04-22 09:56 38.85098 -77.04069 21 ft 2 kts 71°
2026-04-22 09:56 38.85096 -77.04074 24 ft 0 kts 90°
2026-04-22 09:56 38.85097 -77.04066 22 ft 2 kts 76°
2026-04-22 09:56 38.85100 -77.04053 22 ft 1 kts 73°
2026-04-22 09:57 38.85102 -77.04048 21 ft 0 kts 73°
2026-04-22 09:57 38.85104 -77.04037 22 ft 1 kts 73°
2026-04-22 09:57 38.85111 -77.04012 21 ft 4 kts 68°
2026-04-22 09:57 38.85123 -77.03991 21 ft 2 kts 49°
2026-04-22 09:58 38.85149 -77.03957 22 ft 7 kts 50°
2026-04-22 09:58 38.85184 -77.03927 22 ft 5 kts 21°
2026-04-22 09:58 38.85216 -77.03923 21 ft 4 kts 347°
2026-04-22 09:58 38.85244 -77.03927 21 ft 4 kts 355°
2026-04-22 09:59 38.85346 -77.03936 22 ft 22 kts 355°
2026-04-22 09:59 38.85493 -77.03951 29 ft 22 kts 355°
2026-04-22 09:59 38.85648 -77.03967 27 ft 22 kts 355°
2026-04-22 09:59 38.85805 -77.03982 28 ft 23 kts 355°
2026-04-22 10:00 38.85911 -77.03934 28 ft 16 kts 77°
2026-04-22 10:00 38.85868 -77.03849 28 ft 11 kts 171°
2026-04-22 10:00 38.85850 -77.03847 28 ft 0 kts 175°
2026-04-22 10:00 38.85621 -77.03824 27 ft 73 kts 176°
2026-04-22 10:01 38.84875 -77.03749 23 ft 137 kts 175°
2026-04-22 10:01 38.83829 -77.03658 382 ft 149 kts 177°
2026-04-22 10:01 38.82821 -77.03463 989 ft 146 kts 175°
2026-04-22 10:01 38.81733 -77.03237 1279 ft 167 kts 175°
2026-04-22 10:02 38.80502 -77.02981 1472 ft 195 kts 174°
2026-04-22 10:02 38.79069 -77.02676 1803 ft 220 kts 174°
2026-04-22 10:02 38.77480 -77.02320 2214 ft 245 kts 168°
2026-04-22 10:02 38.75955 -77.01183 2763 ft 268 kts 132°
2026-04-22 10:03 38.75176 -76.98997 3559 ft 278 kts 98°
2026-04-22 10:03 38.75033 -76.96506 4466 ft 282 kts 91°
2026-04-22 10:03 38.75053 -76.93985 5338 ft 286 kts 82°
2026-04-22 10:03 38.75788 -76.91634 6156 ft 287 kts 50°
2026-04-22 10:04 38.77303 -76.90001 6983 ft 286 kts 28°
2026-04-22 10:04 38.79019 -76.88689 7843 ft 289 kts 28°
2026-04-22 10:04 38.80762 -76.87356 8682 ft 293 kts 28°
2026-04-22 10:04 38.82515 -76.86006 9491 ft 296 kts 28°
2026-04-22 10:05 38.84295 -76.84627 10287 ft 300 kts 28°
2026-04-22 10:05 38.86030 -76.83101 11057 ft 306 kts 43°
2026-04-22 10:05 38.87244 -76.80835 11797 ft 313 kts 62°
2026-04-22 10:05 38.88205 -76.78317 12566 ft 316 kts 63°
2026-04-22 10:06 38.89148 -76.75786 13294 ft 319 kts 63°
2026-04-22 10:06 38.90103 -76.73199 14016 ft 323 kts 63°
2026-04-22 10:06 38.91068 -76.70583 14713 ft 326 kts 63°
2026-04-22 10:06 38.92049 -76.67934 15387 ft 330 kts 63°
2026-04-22 10:07 38.93044 -76.65261 16060 ft 333 kts 63°
2026-04-22 10:07 38.94048 -76.62566 16707 ft 336 kts 63°
2026-04-22 10:07 38.95040 -76.59834 17342 ft 339 kts 65°
2026-04-22 10:07 38.95983 -76.57037 17965 ft 343 kts 66°
2026-04-22 10:08 38.96899 -76.54197 18578 ft 346 kts 66°
2026-04-22 10:08 38.97814 -76.51313 19177 ft 349 kts 67°
2026-04-22 10:08 38.98734 -76.48417 19766 ft 352 kts 66°
2026-04-22 10:08 38.99666 -76.45503 20336 ft 355 kts 66°
2026-04-22 10:09 39.00613 -76.42547 20898 ft 358 kts 68°
2026-04-22 10:09 39.01194 -76.39428 21414 ft 362 kts 82°
2026-04-22 10:09 39.01521 -76.36195 21962 ft 365 kts 82°
2026-04-22 10:09 39.01838 -76.32955 22477 ft 368 kts 82°
2026-04-22 10:10 39.02158 -76.29665 23002 ft 371 kts 82°
2026-04-22 10:10 39.02476 -76.26377 23504 ft 374 kts 83°
2026-04-22 10:10 39.02798 -76.23037 23997 ft 377 kts 83°
2026-04-22 10:10 39.03121 -76.19690 24475 ft 379 kts 82°
2026-04-22 10:11 39.03450 -76.16310 24950 ft 382 kts 82°
2026-04-22 10:11 39.03780 -76.12905 25414 ft 385 kts 83°
2026-04-22 10:11 39.04112 -76.09477 25870 ft 388 kts 82°
2026-04-22 10:11 39.04435 -76.06026 26318 ft 390 kts 84°
2026-04-22 10:12 39.04673 -76.02570 26763 ft 393 kts 85°
2026-04-22 10:12 39.04844 -75.99049 27199 ft 396 kts 87°
2026-04-22 10:12 39.04978 -75.95505 27629 ft 398 kts 87°
2026-04-22 10:12 39.05100 -75.91944 27839 ft 400 kts 87°
2026-04-22 10:13 39.05226 -75.88358 27882 ft 400 kts 87°
2026-04-22 10:13 39.05364 -75.84788 27882 ft 400 kts 87°
2026-04-22 10:13 39.05513 -75.81214 27883 ft 399 kts 86°
2026-04-22 10:13 39.05673 -75.77653 27882 ft 400 kts 85°
2026-04-22 10:14 39.06289 -75.74222 27885 ft 397 kts 63°
2026-04-22 10:14 39.07711 -75.71183 27883 ft 395 kts 51°
2026-04-22 10:14 39.09526 -75.68518 27883 ft 394 kts 43°
2026-04-22 10:14 39.11521 -75.66113 27882 ft 394 kts 40°
2026-04-22 10:15 39.13584 -75.63783 27882 ft 394 kts 39°
2026-04-22 10:15 39.15597 -75.61470 27881 ft 394 kts 41°
2026-04-22 10:15 39.17629 -75.59014 27879 ft 394 kts 42°
2026-04-22 10:15 39.19580 -75.56527 27877 ft 394 kts 44°
2026-04-22 10:16 39.21471 -75.54015 27876 ft 395 kts 45°
2026-04-22 10:16 39.23434 -75.51488 27874 ft 394 kts 40°
2026-04-22 10:16 39.25515 -75.49261 27873 ft 393 kts 36°
2026-04-22 10:16 39.27712 -75.47205 27873 ft 392 kts 32°
2026-04-22 10:17 39.29980 -75.45254 27875 ft 387 kts 31°
2026-04-22 10:17 39.32204 -75.43398 27877 ft 371 kts 31°
2026-04-22 10:17 39.34314 -75.41630 27878 ft 356 kts 31°
2026-04-22 10:17 39.36366 -75.39875 27881 ft 351 kts 32°
2026-04-22 10:18 39.38385 -75.38114 27882 ft 350 kts 32°
2026-04-22 10:18 39.40407 -75.36330 27882 ft 350 kts 32°
2026-04-22 10:18 39.42408 -75.34548 27882 ft 349 kts 32°
2026-04-22 10:18 39.44406 -75.32758 27882 ft 349 kts 32°
2026-04-22 10:19 39.46397 -75.30971 27883 ft 350 kts 32°
2026-04-22 10:19 39.48389 -75.29184 27882 ft 350 kts 32°
2026-04-22 10:19 39.50403 -75.27382 27882 ft 350 kts 32°
2026-04-22 10:19 39.52399 -75.25574 27881 ft 350 kts 33°
2026-04-22 10:20 39.54348 -75.23766 27880 ft 350 kts 34°
2026-04-22 10:20 39.56343 -75.21891 27879 ft 349 kts 34°
2026-04-22 10:20 39.58308 -75.20035 27876 ft 349 kts 34°
2026-04-22 10:20 39.60243 -75.18202 27875 ft 349 kts 34°
2026-04-22 10:21 39.62212 -75.16342 27874 ft 349 kts 34°
2026-04-22 10:21 39.64195 -75.14471 27885 ft 361 kts 34°
2026-04-22 10:21 39.66276 -75.12515 27886 ft 375 kts 34°
2026-04-22 10:21 39.68435 -75.10505 27884 ft 387 kts 33°
2026-04-22 10:22 39.70664 -75.08526 27883 ft 391 kts 32°
2026-04-22 10:22 39.72939 -75.06572 27882 ft 392 kts 31°
2026-04-22 10:22 39.75128 -75.04718 27881 ft 392 kts 31°
2026-04-22 10:22 39.77414 -75.02784 27843 ft 391 kts 31°
2026-04-22 10:23 39.79689 -75.00850 27420 ft 389 kts 31°
2026-04-22 10:23 39.81939 -74.98926 26986 ft 386 kts 31°
2026-04-22 10:23 39.84133 -74.97037 26768 ft 377 kts 31°
2026-04-22 10:23 39.86281 -74.95169 26641 ft 366 kts 32°
2026-04-22 10:24 39.88348 -74.93321 26510 ft 354 kts 33°
2026-04-22 10:24 39.90336 -74.91510 26381 ft 343 kts 33°
2026-04-22 10:24 39.92236 -74.89686 26137 ft 337 kts 41°
2026-04-22 10:24 39.93907 -74.87548 25783 ft 334 kts 44°
2026-04-22 10:25 39.95476 -74.85342 25398 ft 332 kts 46°
2026-04-22 10:25 39.97015 -74.83087 24998 ft 330 kts 47°
2026-04-22 10:25 39.98526 -74.80846 24620 ft 328 kts 47°
2026-04-22 10:25 40.00018 -74.78646 24243 ft 326 kts 46°
2026-04-22 10:26 40.01533 -74.76439 23853 ft 324 kts 46°
2026-04-22 10:26 40.03037 -74.74267 23477 ft 322 kts 46°
2026-04-22 10:26 40.04543 -74.72104 23103 ft 321 kts 46°
2026-04-22 10:26 40.06036 -74.69957 22551 ft 325 kts 46°
2026-04-22 10:27 40.07573 -74.67751 22072 ft 324 kts 46°
2026-04-22 10:27 40.09057 -74.65617 21622 ft 314 kts 46°
2026-04-22 10:27 40.10572 -74.63447 20501 ft 334 kts 46°
2026-04-22 10:27 40.12188 -74.61133 19556 ft 351 kts 46°
2026-04-22 10:28 40.13847 -74.58755 19067 ft 352 kts 46°
2026-04-22 10:28 40.15483 -74.56399 18742 ft 349 kts 46°
2026-04-22 10:28 40.17100 -74.54065 18370 ft 346 kts 46°
2026-04-22 10:28 40.18706 -74.51743 17987 ft 344 kts 46°
2026-04-22 10:29 40.20317 -74.49416 17419 ft 348 kts 45°
2026-04-22 10:29 40.22041 -74.47080 16465 ft 363 kts 43°
2026-04-22 10:29 40.23876 -74.44739 15462 ft 378 kts 42°
2026-04-22 10:29 40.25832 -74.42316 14384 ft 392 kts 41°
2026-04-22 10:30 40.27751 -74.39959 14002 ft 387 kts 41°
2026-04-22 10:30 40.29672 -74.37585 13861 ft 373 kts 41°
2026-04-22 10:30 40.31514 -74.35280 13738 ft 361 kts 42°
2026-04-22 10:30 40.33292 -74.33034 13605 ft 349 kts 42°
2026-04-22 10:31 40.34999 -74.30862 13522 ft 330 kts 42°
2026-04-22 10:31 40.36563 -74.28868 13378 ft 295 kts 42°
2026-04-22 10:31 40.37987 -74.27050 12471 ft 294 kts 42°
2026-04-22 10:31 40.39520 -74.25115 11391 ft 316 kts 41°
2026-04-22 10:32 40.41144 -74.23067 10647 ft 328 kts 42°
2026-04-22 10:32 40.42750 -74.21029 10531 ft 316 kts 42°
2026-04-22 10:32 40.44304 -74.19051 10402 ft 306 kts 42°
2026-04-22 10:32 40.45792 -74.17152 10275 ft 296 kts 42°
2026-04-22 10:33 40.47242 -74.15297 10143 ft 282 kts 42°
2026-04-22 10:33 40.48608 -74.13547 9867 ft 269 kts 42°
2026-04-22 10:33 40.49944 -74.11841 9400 ft 265 kts 41°
2026-04-22 10:33 40.51256 -74.10170 8872 ft 262 kts 41°
2026-04-22 10:34 40.52666 -74.08727 8413 ft 249 kts 28°
2026-04-22 10:34 40.54049 -74.07576 8309 ft 222 kts 29°
2026-04-22 10:34 40.55252 -74.06548 8178 ft 193 kts 29°
2026-04-22 10:34 40.56316 -74.05631 8025 ft 173 kts 28°
2026-04-22 10:35 40.57297 -74.04792 7724 ft 166 kts 28°
2026-04-22 10:35 40.58280 -74.03958 7217 ft 173 kts 28°
2026-04-22 10:35 40.59337 -74.03070 6530 ft 187 kts 28°
2026-04-22 10:35 40.60449 -74.02134 5896 ft 192 kts 28°
2026-04-22 10:36 40.61576 -74.01179 5303 ft 193 kts 29°
2026-04-22 10:36 40.62643 -74.00266 5017 ft 178 kts 28°
2026-04-22 10:36 40.63752 -73.99549 4768 ft 177 kts
2026-04-22 10:36 40.64987 -73.99537 4800 ft 179 kts 346°
2026-04-22 10:37 40.66223 -73.99801 4813 ft 180 kts 346°
2026-04-22 10:37 40.68628 -74.00305 3928 ft 176 kts 346°
2026-04-22 10:37 40.69428 -74.00475 3566 ft 176 kts 346°
2026-04-22 10:38 40.71022 -74.00811 2896 ft 174 kts 346°
2026-04-22 10:38 40.72219 -74.01064 2724 ft 174 kts 347°
2026-04-22 10:38 40.73411 -74.01316 2886 ft 174 kts 346°
2026-04-22 10:38 40.74618 -74.01574 3139 ft 178 kts 346°
2026-04-22 10:39 40.75458 -74.01754 3312 ft 180 kts 346°
2026-04-22 10:39 40.76688 -74.02013 3560 ft 182 kts 347°
2026-04-22 10:39 40.77945 -74.02277 3750 ft 184 kts 347°
2026-04-22 10:39 40.79209 -74.02544 3802 ft 184 kts 347°
2026-04-22 10:40 40.80490 -74.02577 3804 ft 189 kts
2026-04-22 10:40 40.81680 -74.01868 3810 ft 195 kts 33°
2026-04-22 10:40 40.82547 -74.00479 3807 ft 199 kts 62°
2026-04-22 10:40 40.82847 -73.98697 3808 ft 201 kts 91°
2026-04-22 10:41 40.82522 -73.96930 3576 ft 198 kts 116°
2026-04-22 10:41 40.81867 -73.95347 2864 ft 198 kts 124°
2026-04-22 10:41 40.81061 -73.93793 1886 ft 208 kts 128°
2026-04-22 10:41 40.80260 -73.92162 996 ft 211 kts 122°
2026-04-22 10:42 40.79540 -73.90587 570 ft 192 kts 123°
2026-04-22 10:42 40.78868 -73.89167 281 ft 174 kts 124°
2026-04-22 10:42 40.78253 -73.87876 62 ft 158 kts 123°
2026-04-22 10:42 40.77713 -73.86766 14 ft 125 kts 122°
2026-04-22 10:43 40.77447 -73.86206 13 ft 24 kts 124°
2026-04-22 10:43 40.77392 -73.86112 17 ft 10 kts 130°
2026-04-22 10:43 40.77350 -73.86049 17 ft 9 kts 133°
2026-04-22 10:43 40.77305 -73.85999 15 ft 9 kts 141°
2026-04-22 10:44 40.77255 -73.85953 14 ft 9 kts 149°
2026-04-22 10:44 40.77206 -73.85919 15 ft 7 kts 150°
2026-04-22 10:44 40.77175 -73.85878 15 ft 6 kts 127°
2026-04-22 10:44 40.77140 -73.85857 13 ft 6 kts 171°
2026-04-22 10:45 40.77102 -73.85873 12 ft 6 kts 216°
2026-04-22 10:45 40.77070 -73.85895 12 ft 5 kts 192°
2026-04-22 10:45 40.77028 -73.85894 10 ft 7 kts 171°
2026-04-22 10:45 40.76984 -73.85886 10 ft 5 kts 178°
2026-04-22 10:46 40.76961 -73.85884 11 ft 1 kts 167°
2026-04-22 10:46 40.76958 -73.85881 11 ft 0 kts 155°
2026-04-22 10:46 40.76941 -73.85861 12 ft 0 kts 121°
2026-04-22 10:47 40.76934 -73.85845 12 ft 0 kts 119°
2026-04-22 10:47 40.76930 -73.85837 12 ft 0 kts 122°